Regional Weather Roundup
Issued by NWS Nashville, TN

Home | Current Version | Previous Version | Text Only | Print | Product List | Glossary On
Versions: 1 2 3 4 5 6 7 8 9 10 11 12 13 14 15 16 17 18 19 20 21 22 23 24 25 26 27 28 29 30 31 32 33 34 35 36 37 38 39 40 41 42 43 44 45 46 47 48 49 50
000
ASUS44 KOHX 191015
RWROHX
MIDDLE TENNESSEE HOURLY WEATHER ROUNDUP
NATIONAL WEATHER SERVICE NASHVILLE TN
500 AM CDT SAT APR 19 2014

NOTE: "FAIR" INDICATES FEW OR NO CLOUDS BELOW 12,000 FEET WITH
NO SIGNIFICANT WEATHER AND/OR OBSTRUCTIONS TO VISIBILITY.

* THESE REPORTS ARE NOT UNDER NWS QUALITY CONTROL AND MAY NOT
  REPORT WEATHER SUCH AS PRECIPITATION AND FOG.


TNZ005>011-023>034-057-059-062>066-078-080-191100
...NORTHERN MIDDLE TENNESSEE...

CITY           SKY/WX    TMP DP  RH WIND       PRES   REMARKS
BAXTER*          N/A     50  43  76 CALM        N/A
BRENTWOOD*       N/A     43  39  87 CALM        N/A
CASTALIAN SPRG   N/A     45  43  93 CALM        N/A
CLARKSVILLE    PTCLDY    49  44  83 CALM      30.19S
COLUMBIA       CLEAR     45  45 100 CALM      30.15F
CROSSVILLE     CLOUDY    51  39  63 N7        30.16F
GALLATIN         N/A     45  44  96 CALM      30.19S
DICKSON        PTCLDY    52  45  76 N6        30.18S
FAIRFIELD GLAD   N/A     50  41  71 N3          N/A
GLADEVILLE*      N/A     46  45  93 CALM        N/A
GOODLETTSVILLE   N/A     50  41  71 MISG        N/A
JOELTON*         N/A     46  45  93 W1          N/A
LAFAYETTE*       N/A     52  43  71 N3          N/A
LIVINGSTON     CLOUDY    51  41  69 NE3       30.18R
MONTEREY         N/A     43  41  93 CALM        N/A
MOUNT JULIET*    N/A     48  46  93 CALM        N/A
NASHVILLE      PTCLDY    48  45  89 CALM      30.18F
OLD HICKORY*     N/A     50  48  93 MISG        N/A
PEGRAM*          N/A    N/A N/A N/A NW2         N/A
PORTLAND       CLEAR     43  43 100 CALM      30.19R
SMYRNA         CLEAR     48  45  90 CALM      30.18F
SPARTA         CLEAR     45  43  93 CALM      30.15S
SPRINGFIELD*     N/A     46  12  25 MISG        N/A
WHITE BLUFF*     N/A     52  45  76 CALM        N/A
$$
TNZ056-058-060-061-075>077-079-093>097-191100
...SOUTHERN MIDDLE TENNESSEE...

CITY           SKY/WX    TMP DP  RH WIND       PRES   REMARKS
BELLEVUE*        N/A     46  45  93 CALM        N/A
CULLEOKA*        N/A     46  43  87 CALM        N/A
EAGLEVILLE*      N/A    N/A N/A N/A CALM        N/A
FAYETTEVILLE   CLOUDY    50  45  83 N8        30.14F
HOHENWALD*       N/A     48  45  87 CALM        N/A
LEWISBURG      CLEAR     46  43  90 NW3       30.16S
MANCHESTER*      N/A     45  45 100 CALM        N/A
MCMINNVILLE      N/A     45  45 100 CALM      30.15F
MOUNT PLEASANT   N/A     50  46  87 CALM        N/A
MURFREESBORO   CLEAR     51  47  86 NW3       30.17S
SHELBYVILLE    CLEAR     48  45  87 N6        30.17S
SPRING HILL*     N/A     54  45  71 MISG        N/A
TULLAHOMA      CLEAR     46  43  87 CALM      30.16S
WINCHESTER     CLEAR     46  45  93 CALM      30.15S
$$


...KEY TO REMARKS...
VSB - VISIBILITY IN MILES
WCI - WIND CHILL INDEX
HX  - HEAT INDEX




USA.gov is the U.S. government's official web portal to all federal, state and local government web resources and services.